Regional Weather Roundup
Issued by NWS

Home | Current Version | Previous Version | Text Only | Print | Product List | Glossary On
Versions: 1 2 3 4 5 6 7 8 9 10 11 12 13 14 15 16 17 18 19 20 21 22 23 24 25 26 27 28 29 30 31 32 33 34 35 36 37 38 39 40 41 42 43 44 45 46 47 48 49 50
000
ASUS43 KLMK 240610
RWRKY
KENTUCKY REGIONAL WEATHER ROUNDUP
NATIONAL WEATHER SERVICE LOUISVILLE KY
200 AM EDT WED MAY 24 2017

NOTE "FAIR" INDICATES FEW OR NO CLOUDS BELOW 12,000 FEET
WITH NO SIGNIFICANT WEATHER AND/OR OBSTRUCTIONS TO VISIBILITY.

KYZ001>023-026-027-061>063-070>075-240700-
WESTERN AND SOUTH CENTRAL KENTUCKY

CITY           SKY/WX    TMP DP  RH WIND       PRES   REMARKS
PADUCAH        CLOUDY    63  57  81 N7        29.62F
HENDERSON      CLOUDY    65  57  75 NW5       29.62F
OWENSBORO      CLOUDY    65  58  78 NW3       29.61F
HOPKINSVILLE   CLOUDY    66  54  66 N3        29.61F
BOWLING GREEN  CLOUDY    66  57  72 S3        29.62F
GLASGOW        CLOUDY    61  61 100 CALM      29.62F
$$

KYZ024-025-028>034-038-045-046-053-240700-
NORTH CENTRAL KENTUCKY

CITY           SKY/WX    TMP DP  RH WIND       PRES   REMARKS
LOUISVILLE/SDF CLOUDY    67  53  61 CALM      29.59F
LOUISVILLE/LOU CLOUDY    65  60  84 CALM      29.60F
FORT KNOX      CLOUDY    60  57  88 CALM      29.59F
$$

KYZ035>037-039>044-047>052-055>060-089>105-240700-
NORTHEAST KENTUCKY

CITY           SKY/WX    TMP DP  RH WIND       PRES   REMARKS
LEXINGTON      MOCLDY    59  57  93 S6        29.63F
COVINGTON      CLOUDY    63  58  83 S6        29.61F
FRANKFORT      MOCLDY    61  56  83 S6        29.61F
$$

KYZ054-064>069-076>088-106>120-240700-
SOUTHEAST KENTUCKY

CITY           SKY/WX    TMP DP  RH WIND       PRES   REMARKS
JACKSON        CLOUDY    60  59  96 CALM      29.64F FOG
LONDON         FOG       56  55  97 CALM      29.65F VSB 1/4
SOMERSET       PTCLDY    55  55 100 CALM      29.65F FOG
MIDDLESBORO    CLOUDY    61  61 100 CALM      29.66F
MONTICELLO     CLOUDY    60  59  96 VRB6      29.65F
$$





USA.gov is the U.S. government's official web portal to all federal, state and local government web resources and services.